TimeEDT,TemperatureF,Dew PointF,Humidity,Sea Level PressureIn,VisibilityMPH,Wind Direction,Wind SpeedMPH,Gust SpeedMPH,PrecipitationIn,Events,Conditions,WindDirDegrees,DateUTC
12:26 AM,78.8,75.2,89,30.06,9.0,NNE,4.6,-,N/A,,Partly Cloudy,30,2013-08-19 04:26:00
12:53 AM,78.1,75.0,90,30.05,10.0,NNE,4.6,-,N/A,,Clear,30,2013-08-19 04:53:00
1:27 AM,78.8,75.2,89,30.04,7.0,NNE,5.8,-,0.00,Rain,Light Rain,30,2013-08-19 05:27:00
1:37 AM,78.8,75.2,89,30.04,5.0,NNE,4.6,-,0.00,Rain,Light Rain,30,2013-08-19 05:37:00
1:53 AM,78.1,75.9,93,30.04,5.0,NNE,4.6,-,0.00,,Overcast,20,2013-08-19 05:53:00
2:53 AM,78.1,75.0,90,30.03,9.0,NE,4.6,-,N/A,,Overcast,50,2013-08-19 06:53:00
3:53 AM,78.1,75.0,90,30.02,4.0,NE,6.9,-,N/A,,Overcast,50,2013-08-19 07:53:00
4:32 AM,77.0,75.2,94,30.01,10.0,NE,5.8,-,N/A,,Scattered Clouds,50,2013-08-19 08:32:00
4:53 AM,77.0,75.0,94,30.01,10.0,NE,5.8,-,N/A,,Clear,50,2013-08-19 08:53:00
5:53 AM,75.9,73.9,94,30.01,10.0,NE,5.8,-,N/A,,Scattered Clouds,40,2013-08-19 09:53:00
6:02 AM,75.2,73.4,94,30.01,8.0,ENE,4.6,-,N/A,,Mostly Cloudy,60,2013-08-19 10:02:00
6:16 AM,75.2,73.4,94,30.01,1.8,NE,8.1,-,N/A,,Overcast,40,2013-08-19 10:16:00
6:53 AM,75.9,73.9,94,30.03,1.8,NE,5.8,-,N/A,,Overcast,40,2013-08-19 10:53:00
7:53 AM,75.0,73.0,94,30.05,1.0,NE,8.1,-,N/A,,Mist,50,2013-08-19 11:53:00
8:46 AM,75.2,73.4,94,30.06,2.5,East,5.8,-,N/A,,Overcast,80,2013-08-19 12:46:00
8:53 AM,75.9,73.9,94,30.05,4.0,ENE,5.8,-,N/A,,Overcast,60,2013-08-19 12:53:00
9:28 AM,77.0,75.2,94,30.05,10.0,ENE,6.9,-,N/A,,Partly Cloudy,70,2013-08-19 13:28:00
9:53 AM,78.1,75.9,93,30.05,10.0,ENE,3.5,-,N/A,,Clear,60,2013-08-19 13:53:00
10:53 AM,84.0,75.9,76,30.06,10.0,ESE,3.5,-,N/A,,Clear,120,2013-08-19 14:53:00
11:53 AM,86.0,75.9,72,30.06,10.0,East,8.1,-,N/A,,Clear,100,2013-08-19 15:53:00
12:53 PM,87.1,77.0,72,30.06,10.0,South,9.2,-,N/A,,Clear,170,2013-08-19 16:53:00
1:53 PM,87.1,77.0,72,30.04,10.0,SSE,9.2,-,N/A,,Partly Cloudy,150,2013-08-19 17:53:00
2:53 PM,88.0,75.9,67,30.02,10.0,SE,9.2,-,0.01,,Clear,140,2013-08-19 18:53:00
3:53 PM,88.0,75.9,67,30.00,10.0,SSE,9.2,-,N/A,,Clear,160,2013-08-19 19:53:00
4:53 PM,88.0,75.9,67,29.99,10.0,SE,5.8,-,N/A,,Clear,130,2013-08-19 20:53:00
5:53 PM,87.1,75.9,69,29.99,10.0,SSE,5.8,-,N/A,,Mostly Cloudy,160,2013-08-19 21:53:00
6:39 PM,82.4,73.4,74,30.00,10.0,North,4.6,-,N/A,,Mostly Cloudy,10,2013-08-19 22:39:00
6:53 PM,82.0,75.0,79,30.00,10.0,NNW,3.5,-,N/A,,Mostly Cloudy,330,2013-08-19 22:53:00
7:53 PM,80.1,73.9,81,29.99,10.0,WNW,8.1,-,0.00,Rain,Light Rain,300,2013-08-19 23:53:00
8:00 PM,78.8,73.4,83,29.99,10.0,NW,4.6,-,0.00,Rain,Light Rain,310,2013-08-20 00:00:00
8:53 PM,80.1,75.0,85,30.01,10.0,Calm,Calm,-,0.00,Rain,Light Rain,0,2013-08-20 00:53:00
9:53 PM,80.1,75.9,87,30.03,10.0,ENE,3.5,-,0.00,,Mostly Cloudy,60,2013-08-20 01:53:00
10:53 PM,79.0,75.0,88,30.05,10.0,NNE,3.5,-,N/A,,Mostly Cloudy,30,2013-08-20 02:53:00
11:53 PM,79.0,75.0,88,30.04,10.0,Calm,Calm,-,N/A,,Mostly Cloudy,0,2013-08-20 03:53:00